Vorticity
nan nan nan nan nan nan nan nan nan nan nan nan nan nan nan nan nan nan nan nan nan nan nan nan nan nan nan nan nan nan nan nan nan nan nan nan nan nan nan nan nan nan nan
nan 8 7 6 4 4 4 6 6 6 5 5 5 5 4 4 4 5 5 6 6 6 7 6 6 6 6 4 4 5 5 5 4 3 1 4 6 5 5 7 9 5 nan
nan 7 6 5 5 3 5 5 6 6 6 6 5 4 5 4 4 4 6 6 7 6 6 6 6 5 5 5 4 4 4 3 4 2 2 3 6 6 6 6 5 6 nan
nan 7 7 6 5 2 4 5 6 5 4 5 5 5 5 5 4 4 6 7 7 6 5 5 5 5 5 5 5 5 4 3 4 4 7 6 5 6 5 6 5 6 nan
nan 5 10 8 5 4 4 4 5 4 4 6 6 5 5 6 6 6 6 6 6 6 5 5 6 6 5 6 6 5 4 2 3 11 7 5 5 6 6 6 5 4 nan
nan 5 8 9 6 5 5 5 5 5 6 6 5 6 6 6 6 6 6 6 5 6 6 6 5 5 5 6 6 5 3 2 8 7 5 7 8 6 6 6 7 7 nan
nan 6 6 7 7 7 6 5 6 5 6 6 6 6 7 6 6 6 5 5 6 5 6 6 5 5 6 7 6 3 2 6 11 6 5 6 7 7 6 6 7 6 nan
nan 6 8 6 7 7 6 5 6 7 8 6 6 7 7 6 6 6 5 6 6 5 6 6 6 5 6 7 4 3 4 7 6 5 6 7 7 8 5 5 9 8 nan
nan 4 10 8 3 4 6 7 7 7 8 6 6 7 7 7 7 5 5 5 5 6 6 6 6 6 6 5 4 4 4 6 10 5 7 6 9 8 7 6 8 9 nan
nan 8 10 8 6 5 3 4 7 8 7 8 7 7 7 5 6 5 5 6 7 6 7 7 7 8 7 4 5 5 3 10 7 5 5 9 9 8 8 8 7 6 nan
nan 10 9 7 8 6 4 4 4 5 4 4 5 6 5 6 7 2 3 8 8 7 7 8 7 4 3 5 5 5 6 9 5 5 7 9 8 7 7 7 6 6 nan
nan 7 8 8 7 5 6 9 4 2 3 5 6 3 3 6 6 4 4 6 6 5 4 5 5 4 2 2 4 5 10 8 5 6 10 8 7 7 6 5 5 6 nan
nan 5 7 9 7 5 4 4 5 7 7 10 9 5 6 6 6 7 5 4 4 3 3 4 3 4 5 6 6 8 9 7 6 4 9 12 9 6 6 7 6 6 nan
nan 5 9 8 7 6 4 6 7 6 6 9 9 7 5 7 7 7 7 6 4 5 7 4 5 9 8 8 8 7 7 7 7 7 3 12 15 6 6 6 6 5 nan
nan 14 8 7 5 8 4 4 7 7 7 8 8 7 6 7 8 6 6 6 6 8 6 7 8 8 7 7 7 7 6 6 8 8 3 4 14 13 6 7 6 5 nan
nan 21 10 7 8 5 9 4 3 9 7 7 8 9 8 6 8 8 6 6 7 8 9 8 8 7 7 6 7 6 5 6 6 8 9 3 3 14 12 8 6 6 nan
nan 20 18 12 9 4 6 6 5 7 8 7 9 9 7 8 8 7 6 6 7 9 9 7 7 7 7 8 8 5 5 6 7 7 9 9 5 1 12 13 8 8 nan
nan 11 20 18 11 7 2 4 8 8 7 8 7 9 9 8 9 6 6 7 8 8 7 8 7 7 7 8 6 6 6 5 6 6 8 8 8 6 8 10 13 11 nan
nan 13 15 22 17 7 4 4 7 8 7 8 8 9 10 7 7 8 8 9 7 6 8 8 8 8 6 7 7 7 6 7 7 8 8 7 6 7 10 10 11 11 nan
nan 11 14 25 23 9 4 5 6 9 9 8 7 11 9 8 7 6 8 10 6 6 8 9 8 8 8 7 7 7 7 7 7 8 7 7 8 8 8 10 12 11 nan
nan 8 11 12 21 19 10 6 7 8 8 7 10 10 8 8 7 5 8 8 8 8 8 7 7 6 7 6 4 5 7 8 8 7 8 8 8 8 8 11 9 8 nan
nan 8 8 9 12 19 15 7 9 10 8 8 10 9 10 9 6 6 7 7 7 8 9 7 4 1 9 8 2 5 7 6 9 8 7 8 8 9 9 12 12 8 nan
nan 10 7 10 12 12 17 14 6 9 10 11 9 10 10 9 8 8 7 7 6 6 8 8 6 4 5 10 5 4 7 9 8 9 8 7 9 9 9 11 13 11 nan
nan 10 8 10 13 12 20 17 9 4 7 10 10 9 11 10 7 7 8 7 6 6 9 7 7 6 7 8 6 6 6 13 8 8 10 9 9 9 8 10 13 12 nan
nan 10 11 8 11 9 15 19 22 10 4 9 12 10 10 10 9 8 8 7 5 7 10 9 7 5 6 7 7 7 7 5 8 9 10 9 9 10 8 8 8 13 nan
nan nan nan nan nan nan nan nan nan nan nan nan nan nan nan nan nan nan nan nan nan nan nan nan nan nan nan nan nan nan nan nan nan nan nan nan nan nan nan nan nan nan nan
CAPE
206 320 1340 1230 1443 1928 2067 2346 2231 1988 2025 1829 1359 1010 949 1045 1116 1133 1152 1302 1439 1684 1534 1080 1011 1027 1004 629 491 598 845 711 913 559 448 449 587 327 92 342 228 69 105
210 419 1310 1319 1592 2057 2238 2339 2123 2019 1926 1829 1626 1197 1044 1046 1079 1167 1244 1392 1467 1587 1236 1001 904 938 778 715 722 584 508 510 517 236 122 122 245 468 232 432 181 154 250
323 593 894 1415 1624 1907 2052 2140 2135 2026 1895 1850 1739 1590 1269 1137 1188 1263 1459 1227 1305 1089 1025 834 730 835 700 578 589 416 386 358 334 221 124 9 33 480 275 484 302 144 190
403 1141 386 1347 997 1522 1851 1914 1984 1962 1834 1830 1759 1710 1694 1426 1211 1328 1506 1458 1272 1011 1005 1112 927 765 560 555 458 256 250 182 170 130 31 10 97 358 240 169 184 11 70
583 1380 579 1242 967 1377 1352 1691 1711 1464 1540 1693 1799 1720 1735 1681 1282 1144 1457 1411 1086 1085 1092 854 631 584 486 524 223 198 180 112 52 20 37 109 169 334 359 287 149 100 195
702 1316 1037 1157 864 1161 1116 1342 1568 1530 1572 1561 1803 1840 1837 1655 1524 1211 1393 1020 808 744 747 424 345 318 454 363 162 198 114 83 40 105 91 170 182 251 287 44 215 266 280
664 1187 1258 1240 1225 1314 966 1089 1310 1535 1536 1577 1818 1952 1843 1652 1398 1205 1088 743 709 765 667 410 225 219 392 321 157 150 10 0 29 37 43 71 184 357 157 339 327 275 282
655 1127 995 1013 1148 1168 1088 1076 1040 1327 1463 1722 1815 1820 1558 1343 1197 1249 958 772 736 758 651 442 325 198 225 83 88 11 0 0 12 12 11 19 214 436 450 385 307 320 274
760 1170 1071 811 864 734 719 744 894 1091 1238 1530 1549 1365 1005 787 915 1050 863 808 876 828 648 553 418 163 7 39 28 0 0 0 13 17 8 19 199 305 360 358 372 358 347
1067 1354 919 558 870 655 551 492 635 1043 1187 1252 1161 754 486 566 649 557 430 548 794 722 554 369 257 51 2 4 1 0 0 0 64 33 20 19 349 285 372 384 385 323 295
1067 1085 999 560 625 686 511 399 367 706 763 749 418 172 316 837 717 343 188 403 382 394 336 209 55 26 3 2 1 0 0 68 131 68 9 105 441 281 331 341 303 325 179
887 1102 1127 829 608 497 534 643 731 824 1059 1038 965 881 784 656 441 262 207 167 215 134 63 41 7 1 2 8 3 0 25 120 130 128 95 186 506 295 320 281 312 212 84
791 1173 1203 845 891 815 539 751 1129 1213 1096 1007 706 661 587 444 350 423 295 235 127 26 28 6 3 1 5 12 16 14 30 83 114 132 29 139 483 235 290 333 363 180 47
421 967 978 921 865 746 702 910 1129 960 677 383 454 404 454 496 292 226 240 179 46 3 2 1 1 2 3 6 9 11 12 10 39 87 15 0 236 316 256 317 354 213 85
19 709 1006 923 895 878 783 888 786 516 364 351 377 271 266 300 154 145 165 49 1 0 3 0 0 0 2 3 2 0 0 0 0 0 3 0 0 195 254 274 331 304 163
0 379 858 816 923 931 957 660 477 409 295 270 317 239 215 204 170 184 111 6 0 1 4 2 1 0 1 1 0 0 0 0 0 0 0 42 0 4 95 187 261 301 242
0 0 282 569 987 934 580 656 476 243 274 359 242 231 216 145 134 92 31 2 1 0 4 2 1 0 0 0 0 3 0 0 0 0 0 31 26 0 0 223 249 280 249
4 2 2 556 555 902 791 438 331 369 331 324 219 209 176 78 103 85 1 0 1 0 1 1 0 0 0 0 1 0 0 0 0 0 0 0 3 31 23 61 183 261 255
3 5 5 18 626 838 699 483 251 289 340 272 238 242 133 53 13 18 11 0 0 1 2 0 0 0 0 0 0 0 0 0 0 0 0 0 1 2 48 56 52 70 89
1 1 1 3 403 924 880 475 252 233 288 221 277 193 97 21 0 0 1 1 3 0 1 1 0 0 0 0 0 0 0 0 0 0 0 0 0 1 1 145 117 108 17
1 1 2 4 3 220 408 398 153 143 160 165 138 116 51 5 0 0 1 2 0 1 1 0 0 0 0 0 0 1 0 0 0 0 0 0 0 1 0 64 113 105 18
4 4 1 3 4 4 185 201 144 132 162 183 113 112 24 0 1 0 1 1 0 2 1 0 0 1 1 0 0 1 5 3 1 0 0 0 0 0 1 1 59 85 89
3 6 3 3 5 6 4 144 72 103 155 149 91 32 13 0 0 0 1 0 0 0 1 2 0 0 1 1 5 0 3 1 1 0 1 0 0 0 1 0 1 32 57
4 4 5 2 7 7 3 11 64 87 67 68 49 40 14 0 0 0 0 0 0 1 0 0 0 0 1 0 2 0 0 0 0 2 1 1 0 0 0 0 1 3 14
1 3 5 3 1 7 2 4 40 49 59 32 39 56 27 2 1 1 0 0 0 0 0 0 0 0 1 0 0 2 0 0 0 0 4 2 1 0 0 0 0 0 0
1 4 3 5 1 5 3 3 2 1 62 46 66 69 17 3 1 1 0 0 1 0 0 0 0 0 0 0 0 0 0 0 0 0 0 2 1 0 0 0 0 0 0